THORAD AGENA D DEB

Satellite information

Favourite Embed

Satellite Type and Status

DEBRISIN ORBIT

Key statistics

Satellite THORAD AGENA D DEB at a glance.

Uptime

20310

Days in orbit

Revolutions

≈ 14.4

Per day

Orbit

LEO

Low Earth Orbit

Inclination

70.1

Latest

Satellite identification and parameters

Extended collection of information and parameters for THORAD AGENA D DEB.

Object identification

Identified? True

Debris? True

Object name: THORAD AGENA D DEB

International designator: 1969-082HY

Object number (NORAD): 5519

Object ID (CCSDS): 5519

Country: UNITED STATES OF AMERICA (US)

Current information (Y/N): Y

RCS size: SMALL

Orbital parameters

Period: 99.799 minutes

Inclination: 70.0541 deg

SMA: 7127.089 km

Apoapsis: 780.73 km

Periapsis: 717.178 km

RAAN: 190.0371 deg

Eccentricy: 0.0044585

Argument of periapsis: 72.5822 deg

Mean anomaly: 288.0176 deg

Mean motion: 14.42894287 rev/day

Mean motion (dot): 0.00001151 rev/day2

B* drag term: 0.00035769 1/REarth

Two-line elements (TLE)

Creation date: May 8, 2025, 3:01 a.m.

Reference frame: TEME

Reference center: EARTH

Epoch: May 7, 2025, 2:19 p.m. UTC

TLE line 0: 0 THORAD AGENA D DEB

TLE line 1: 1 05519U 69082HY 25127.59665871 .00001151 00000-0 35769-3 0 9990

TLE line 2: 2 05519 70.0541 190.0371 0044585 72.5822 288.0176 14.42894287892563

Live tracking on map

Real-time ground track for satellite THORAD AGENA D DEB.

In-orbit conjunctions

A list of the most updated potential collisions computed for object THORAD AGENA D DEB.

Target Orbit TCA Probability of collision Miss distance Type
ITAMSAT SSO 2024-11-20 02:31:31 0.0001000628 663.0 (m) PAYLOAD
FENGYUN 1C DEB SSO 2024-06-07 01:44:54 0.0001115613 240.0 (m) DEBRIS

Associated space launch

Poppy was the follow-on ELINT system, which succeeded the Grab ELINT satellite system.

THORAD AGENA D DEB was lifted into orbit during the mission ‘Thorad SLV-2G Agena D | Poppy 8A,B,C,D’, on board a Thorad SLV-2G Agena D space rocket.

The launch took place on Sept. 30, 1969, 1:40 p.m. from Space Launch Complex 1W.

For more information about the launch, click the button.

Launch to space Thorad SLV-2G Agena D | Poppy 8A,B,C,D
Thorad SLV-2G Agena D | Poppy 8A,B,C,D

Agency: N/A

Status: Launch Successful

Launch date: Sept. 30, 1969, 1:40 p.m. UTC

Rocket: Thorad SLV-2G Agena D

Launch pad: Space Launch Complex 1W

Location: Vandenberg SFB, CA, USA

...

Latest news about this satellite

There are no fresh news available about this satellite. Check back as we update our databases every day.


Newsletter sign-up

Weekly statistics, charts and insights to help you stay on top of the space industry.